Time,TemperatureF,DewpointF,PressureIn,WindDirection,WindDirectionDegrees,WindSpeedMPH,WindSpeedGustMPH,Humidity,HourlyPrecipIn,Conditions,Clouds,dailyrainin,SoftwareType,DateUTC
2013-03-02 00:00:00,33.0,15.0,-100.00,North,-999,-999.0,-999.0,47,-99.99,,,-99.99,,2013-03-02 07:00:00,
2013-03-02 00:52:00,33.0,15.0,-100.00,North,-999,-999.0,-999.0,47,-99.99,,,-99.99,,2013-03-02 07:52:00,
2013-03-02 01:00:00,29.0,13.0,-100.00,North,-999,-999.0,-999.0,50,-99.99,,,0.00,,2013-03-02 08:00:00,
2013-03-02 01:52:00,29.0,13.0,-100.00,North,-999,-999.0,-999.0,50,-99.99,,,0.00,,2013-03-02 08:52:00,
2013-03-02 02:00:00,26.0,15.0,-100.00,North,-999,-999.0,-999.0,61,-99.99,,,-99.99,,2013-03-02 09:00:00,
2013-03-02 02:52:00,26.0,15.0,-100.00,North,-999,-999.0,-999.0,61,-99.99,,,-99.99,,2013-03-02 09:52:00,
2013-03-02 03:00:00,25.0,15.0,-100.00,North,-999,-999.0,-999.0,65,-99.99,,,-99.99,,2013-03-02 10:00:00,
2013-03-02 03:52:00,25.0,15.0,-100.00,North,-999,-999.0,-999.0,65,-99.99,,,-99.99,,2013-03-02 10:52:00,
2013-03-02 04:00:00,27.0,18.0,-100.00,North,-999,-999.0,-999.0,69,-99.99,,,0.00,,2013-03-02 11:00:00,
2013-03-02 04:52:00,27.0,18.0,-100.00,North,-999,-999.0,-999.0,69,-99.99,,,0.00,,2013-03-02 11:52:00,
2013-03-02 05:00:00,25.0,14.0,-100.00,North,-999,-999.0,-999.0,63,-99.99,,,-99.99,,2013-03-02 12:00:00,
2013-03-02 05:53:00,25.0,14.0,-100.00,North,-999,-999.0,-999.0,63,-99.99,,,-99.99,,2013-03-02 12:53:00,
2013-03-02 06:00:00,26.0,17.0,-100.00,North,-999,-999.0,-999.0,68,-99.99,,,-99.99,,2013-03-02 13:00:00,
2013-03-02 07:00:00,25.0,14.0,-100.00,North,-999,-999.0,-999.0,64,-99.99,,,0.00,,2013-03-02 14:00:00,
2013-03-02 07:52:00,25.0,14.0,-100.00,North,-999,-999.0,-999.0,64,-99.99,,,0.00,,2013-03-02 14:52:00,
2013-03-02 08:00:00,32.0,22.0,-100.00,North,-999,-999.0,-999.0,65,-99.99,,,-99.99,,2013-03-02 15:00:00,
2013-03-02 08:52:00,32.0,22.0,-100.00,North,-999,-999.0,-999.0,65,-99.99,,,-99.99,,2013-03-02 15:52:00,
2013-03-02 09:00:00,38.0,17.0,-100.00,North,-999,-999.0,-999.0,42,-99.99,,,-99.99,,2013-03-02 16:00:00,
2013-03-02 09:52:00,38.0,17.0,-100.00,North,-999,-999.0,-999.0,42,-99.99,,,-99.99,,2013-03-02 16:52:00,
2013-03-02 10:00:00,41.0,15.0,-100.00,North,-999,-999.0,-999.0,34,-99.99,,,0.00,,2013-03-02 17:00:00,
2013-03-02 10:52:00,41.0,15.0,-100.00,North,-999,-999.0,-999.0,34,-99.99,,,0.00,,2013-03-02 17:52:00,
2013-03-02 11:00:00,42.0,15.0,-100.00,North,-999,-999.0,-999.0,32,-99.99,,,-99.99,,2013-03-02 18:00:00,
2013-03-02 11:52:00,42.0,15.0,-100.00,North,-999,-999.0,-999.0,32,-99.99,,,-99.99,,2013-03-02 18:52:00,
2013-03-02 12:00:00,44.0,15.0,-100.00,North,-999,-999.0,-999.0,31,-99.99,,,-99.99,,2013-03-02 19:00:00,
2013-03-02 12:52:00,44.0,15.0,-100.00,North,-999,-999.0,-999.0,31,-99.99,,,-99.99,,2013-03-02 19:52:00,
2013-03-02 13:00:00,44.0,13.0,-100.00,North,-999,-999.0,-999.0,28,-99.99,,,0.00,,2013-03-02 20:00:00,
2013-03-02 13:52:00,44.0,13.0,-100.00,North,-999,-999.0,-999.0,28,-99.99,,,0.00,,2013-03-02 20:52:00,
2013-03-02 14:00:00,45.0,12.0,-100.00,North,-999,-999.0,-999.0,25,-99.99,,,-99.99,,2013-03-02 21:00:00,
2013-03-02 14:52:00,45.0,12.0,-100.00,North,-999,-999.0,-999.0,25,-99.99,,,-99.99,,2013-03-02 21:52:00,
2013-03-02 15:00:00,44.0,8.0,-100.00,North,-999,-999.0,-999.0,23,-99.99,,,-99.99,,2013-03-02 22:00:00,
2013-03-02 15:52:00,44.0,8.0,-100.00,North,-999,-999.0,-999.0,23,-99.99,,,-99.99,,2013-03-02 22:52:00,
2013-03-02 16:00:00,41.0,9.0,-100.00,North,-999,-999.0,-999.0,27,-99.99,,,-99.99,,2013-03-02 23:00:00,
2013-03-02 16:52:00,41.0,9.0,-100.00,North,-999,-999.0,-999.0,27,-99.99,,,-99.99,,2013-03-02 23:52:00,
2013-03-02 17:00:00,38.0,13.0,-100.00,North,-999,-999.0,-999.0,35,-99.99,,,-99.99,,2013-03-03 00:00:00,
2013-03-02 17:52:00,38.0,13.0,-100.00,North,-999,-999.0,-999.0,35,-99.99,,,-99.99,,2013-03-03 00:52:00,
2013-03-02 18:00:00,37.0,13.0,-100.00,North,-999,-999.0,-999.0,37,-99.99,,,-99.99,,2013-03-03 01:00:00,
2013-03-02 18:52:00,37.0,13.0,-100.00,North,-999,-999.0,-999.0,37,-99.99,,,-99.99,,2013-03-03 01:52:00,
2013-03-02 19:00:00,31.0,13.0,-100.00,North,-999,-999.0,-999.0,45,-99.99,,,0.00,,2013-03-03 02:00:00,
2013-03-02 19:52:00,31.0,13.0,-100.00,North,-999,-999.0,-999.0,45,-99.99,,,0.00,,2013-03-03 02:52:00,
2013-03-02 20:00:00,31.0,16.0,-100.00,North,-999,-999.0,-999.0,55,-99.99,,,-99.99,,2013-03-03 03:00:00,
2013-03-02 20:52:00,31.0,16.0,-100.00,North,-999,-999.0,-999.0,55,-99.99,,,-99.99,,2013-03-03 03:52:00,
2013-03-02 21:00:00,29.0,16.0,-100.00,North,-999,-999.0,-999.0,56,-99.99,,,-99.99,,2013-03-03 04:00:00,
2013-03-02 21:52:00,29.0,16.0,-100.00,North,-999,-999.0,-999.0,56,-99.99,,,-99.99,,2013-03-03 04:52:00,
2013-03-02 22:00:00,28.0,16.0,-100.00,North,-999,-999.0,-999.0,60,-99.99,,,0.00,,2013-03-03 05:00:00,
2013-03-02 22:52:00,28.0,16.0,-100.00,North,-999,-999.0,-999.0,60,-99.99,,,0.00,,2013-03-03 05:52:00,
2013-03-02 23:00:00,31.0,20.0,-100.00,North,-999,-999.0,-999.0,62,-99.99,,,-99.99,,2013-03-03 06:00:00,
2013-03-02 23:52:00,31.0,20.0,-100.00,North,-999,-999.0,-999.0,62,-99.99,,,-99.99,,2013-03-03 06:52:00,